Weather History for Homestead AFB, FL

Change the Weather History Date:

Monday, July 8, 2013

  Actual Average Record
Temperature  
Mean Temperature 82 °F -  
Max Temperature 86 °F 89 °F 96 °F (1932)
Min Temperature 78 °F 72 °F 66 °F (1943)
Cooling Degree Days 17    
Growing Degree Days 32 (Base 50)    
Moisture  
Dew Point 73 °F    
Average Humidity 73    
Maximum Humidity 89    
Minimum Humidity 62    
Precipitation  
Precipitation 0.07 in - - ()
Sea Level Pressure  
Sea Level Pressure 30.11 in    
Wind  
Wind Speed 9 mph (East)    
Max Wind Speed 16 mph    
Max Gust Speed -    
Visibility 10 miles    
Events Rain    
Averages and records for this station are not official NWS values.
T = Trace of Precipitation, MM = Missing Value Source: NWS Daily Summary

Daily Weather History Graph

Daily Weather History Graph

Search for Another Location

Airport:

Trip Planner

Search our weather history database for the weather conditions in past years. The results will help you decide how hot, cold, wet, or windy it might be!

Date:

Astronomy

Jul. 08, 2013 Rise Set
Actual Time 6:37 AM EDT 8:16 PM EDT
Civil Twilight 6:11 AM EDT 8:41 PM EDT
Nautical Twilight 5:40 AM EDT 9:12 PM EDT
Astronomical Twilight 5:08 AM EDT 9:44 PM EDT
Moon 6:56 AM EDT (7/8) 8:28 PM EDT (7/8)
Length of Visible Light 14h 30m
Length of Day
13h 38m
New Moon, 0% of the Moon is Illuminated
Jul 8
New Moon
Jul 15
First Quarter
Jul 22
Full
Jul 29
Last Quarter
Aug 6
New

Hourly Weather History & Observations

Time (EDT) Temp. Heat Index Dew Point Humidity Pressure Visibility Wind Dir Wind Speed Gust Speed Precip Events Conditions
12:32 AM 82.4 °F 89.5 °F 75.2 °F 79% 30.10 in 8.0 mi ESE 12.7 mph - N/A Rain Light Rain
12:37 AM 80.6 °F 86.2 °F 75.2 °F 84% 30.10 in 4.0 mi East 11.5 mph - N/A Rain Heavy Rain
12:47 AM 78.8 °F - 75.2 °F 89% 30.10 in 7.0 mi ESE 4.6 mph - N/A Rain Light Rain
12:50 AM 78.8 °F - 75.2 °F 89% 30.10 in 10.0 mi East 4.6 mph - N/A   Mostly Cloudy
12:55 AM 78.8 °F - 75.2 °F 89% 30.09 in 10.0 mi East 3.5 mph - N/A   Scattered Clouds
12:58 AM 78.6 °F - 74.8 °F 88% 30.10 in 10.0 mi East 4.6 mph - 0.06 in   Scattered Clouds
1:58 AM 79.3 °F - 74.7 °F 86% 30.10 in 10.0 mi ESE 3.5 mph - N/A   Partly Cloudy
2:58 AM 79.0 °F - 72.5 °F 80% 30.10 in 10.0 mi ESE 5.8 mph - N/A   Clear
3:58 AM 79.5 °F - 73.2 °F 81% 30.09 in 10.0 mi East 4.6 mph - 0.01 in   Scattered Clouds
4:58 AM 79.5 °F - 72.1 °F 78% 30.09 in 10.0 mi East 4.6 mph - N/A   Clear
5:58 AM 79.7 °F - 72.3 °F 78% 30.09 in 10.0 mi ESE 8.1 mph - N/A   Clear
6:58 AM 79.7 °F - 71.6 °F 76% 30.09 in 10.0 mi East 8.1 mph - N/A   Clear
7:58 AM 81.7 °F 85.8 °F 71.2 °F 70% 30.10 in 10.0 mi East 9.2 mph - N/A   Partly Cloudy
8:58 AM 83.5 °F 88.2 °F 71.2 °F 66% 30.12 in 10.0 mi ESE 11.5 mph - N/A   Clear
9:58 AM 84.2 °F 89.9 °F 72.0 °F 67% 30.13 in 10.0 mi East 16.1 mph - N/A   Partly Cloudy
10:58 AM 84.9 °F 90.4 °F 71.4 °F 64% 30.15 in 10.0 mi ESE 12.7 mph - N/A   Clear
11:58 AM 86.0 °F 91.8 °F 71.6 °F 62% 30.16 in 10.0 mi East 12.7 mph - N/A   Clear
12:58 PM 86.2 °F 92.6 °F 72.3 °F 63% 30.16 in 10.0 mi East 15.0 mph - N/A   Partly Cloudy
1:58 PM 86.0 °F 91.8 °F 71.8 °F 62% 30.15 in 10.0 mi East 12.7 mph - N/A   Scattered Clouds
2:58 PM 86.5 °F 92.9 °F 72.3 °F 62% 30.13 in 10.0 mi East 10.4 mph - N/A   Clear
3:33 PM 86.0 °F 91.8 °F 71.6 °F 62% 30.12 in 10.0 mi East 12.7 mph - N/A   Light Drizzle
3:37 PM 86.0 °F 91.8 °F 71.6 °F 62% 30.11 in 10.0 mi East 10.4 mph - N/A   Clear
3:58 PM 86.2 °F 92.6 °F 72.3 °F 63% 30.12 in 10.0 mi East 12.7 mph - 0.00 in   Clear
4:49 PM 86.0 °F 93.4 °F 73.4 °F 66% 30.09 in 10.0 mi East 12.7 mph - N/A Rain Light Rain
4:58 PM 86.2 °F 93.0 °F 72.7 °F 64% 30.10 in 10.0 mi East 11.5 mph - 0.00 in Rain Light Rain
5:00 PM 86.0 °F 93.4 °F 73.4 °F 66% 30.09 in 10.0 mi East 12.7 mph - N/A   Clear
5:58 PM 84.9 °F 91.1 °F 72.5 °F 66% 30.10 in 10.0 mi ENE 9.2 mph - 0.00 in   Partly Cloudy
6:58 PM 84.4 °F 89.4 °F 71.1 °F 64% 30.09 in 10.0 mi ENE 8.1 mph - N/A   Clear
7:58 PM 82.4 °F 87.4 °F 72.0 °F 71% 30.11 in 10.0 mi NE 6.9 mph - N/A   Clear
8:58 PM 80.6 °F 84.6 °F 71.8 °F 74% 30.11 in 10.0 mi ENE 5.8 mph - N/A   Clear
9:58 PM 80.6 °F 84.9 °F 72.3 °F 76% 30.13 in 10.0 mi East 8.1 mph - N/A   Clear
10:58 PM 80.6 °F 85.0 °F 72.7 °F 77% 30.15 in 10.0 mi ENE 5.8 mph - N/A   Clear
11:58 PM 79.9 °F - 71.8 °F 76% 30.15 in 10.0 mi ENE 4.6 mph - N/A   Clear